This demonstration page uses our WeatherBlox Daily Observations layout. Learn more.

Left ArrowRight Arrow

39.92423, -83.80882

Hourly Observations for February 9, 2020

Temp ( °F °C ) Dew Point ( °F °C ) Humidity (%) Winds ( mph kmh ) Pressure ( in mb ) Visibility ( mi km ) Precip ( " mm )
12:34 am 00:34 Cloudy with Mist and Fog 27 -3 27 -3 100 100 SW 6 9 30.36 1028 6 10 N/A
12:56 am 00:56 Cloudy 28 -2.2 28 -2.2 100 100 SW 6 9 30.34 1027 8 13 N/A
1:18 am 01:18 Cloudy 28 -2 28 -2 100 100 WSW 8 13 30.36 1028 8 13 N/A
1:56 am 01:56 Cloudy 29 -1.7 27 -2.8 92 92 WSW 6 9 30.36 1028 10 16 N/A
2:22 am 02:22 Cloudy 28 -2 28 -2 100 100 SW 5 7 30.39 1029 10 16 N/A
2:56 am 02:56 Cloudy 29 -1.7 28 -2.2 96 96 SW 6 9 30.37 1029 9 14 N/A
3:38 am 03:38 Cloudy 28 -2 28 -2 100 100 SW 8 13 30.40 1030 8 13 N/A
3:56 am 03:56 Cloudy 29 -1.7 28 -2.2 96 96 SW 8 13 30.38 1029 8 13 N/A
4:56 am 04:56 Cloudy 28 -2.2 27 -2.8 96 96 SW 6 9 30.39 1029 8 13 N/A
5:56 am 05:56 Clear with Mist and Fog 26 -3.3 26 -3.3 100 100 S 3 6 30.41 1030 5 8 N/A
6:56 am 06:56 Clear with Mist and Fog 25 -3.9 25 -3.9 100 100 SSE 5 7 30.40 1030 3 5 N/A
7:03 am 07:03 Clear with Mist and Fog 25 -4 25 -4 100 100 SSE 6 9 30.43 1031 3 4 N/A
7:41 am 07:41 Sunny with Mist and Fog 25 -4 25 -4 100 100 SSE 5 7 30.44 1031 3 5 N/A
7:56 am 07:56 Sunny with Mist and Fog 25 -3.9 25 -3.9 100 100 SSE 5 7 30.42 1030 3 4 N/A
8:44 am 08:44 Sunny with Mist and Fog 27 -3 27 -3 100 100 SSE 8 13 30.45 1031 3 5 N/A
8:56 am 08:56 Sunny with Mist and Fog 27 -2.8 27 -2.8 100 100 S 7 11 30.42 1030 3 5 N/A
9:56 am 09:56 Sunny 30 -1.1 26 -3.3 85 85 SSE 13 20 30.41 1030 10 16 N/A
10:56 am 10:56 Mostly Sunny 31 -0.6 25 -3.9 79 79 S 9 15 30.42 1030 10 16 N/A
11:56 am 11:56 Cloudy 31 -0.6 26 -3.3 82 82 S 10 17 30.41 1030 10 16 N/A
12:56 pm 12:56 Cloudy 31 -0.6 27 -2.8 85 85 S 10 17 30.37 1028 10 16 N/A
1:56 pm 13:56 Cloudy 32 undefined 27 -2.8 82 82 SSE 12 19 30.31 1027 10 16 N/A
2:56 pm 14:56 Cloudy with Light Snow 32 undefined 28 -2.2 85 85 SSE 13 20 30.29 1026 5 8 0.00 0.00
3:01 pm 15:01 Cloudy with Light Snow 32 undefined 28 -2 87 87 S 14 22 30.29 1026 2 2 0.00 0.00
3:03 pm 15:03 Cloudy with Light Snow 32 undefined 28 -2 87 87 S 12 19 30.29 1026 1 1 0.00 0.00
3:06 pm 15:06 Cloudy with Light Snow 30 -1 30 -1 100 100 S 13 20 30.30 1026 1 1 0.00 0.00
3:09 pm 15:09 Cloudy with Snow 30 -1 30 -1 100 100 SSE 13 20 30.29 1026 0 0 0.00 0.00
3:16 pm 15:16 Cloudy with Light Snow 30 -1 30 -1 100 100 SSE 13 20 30.28 1025 1 1 0.00 0.00
3:22 pm 15:22 Cloudy with Light Snow 30 -1 30 -1 100 100 SSE 15 24 30.27 1025 1 2 0.00 0.00
3:28 pm 15:28 Cloudy with Light Snow 30 -1 30 -1 100 100 SSE 10 17 30.27 1025 3 5 0.00 0.00
3:44 pm 15:44 Cloudy with Light Snow 30 -1 30 -1 100 100 SE 15 24 30.25 1024 5 8 0.00 0.00
3:56 pm 15:56 Cloudy with Light Wintry Mix 31 -0.6 31 -0.6 100 100 SE 15 24 30.21 1023 8 13 0.00 0.00
4:56 pm 16:56 Cloudy 33 0.6 30 -1.1 89 89 SE 13 20 30.19 1022 10 16 0.00 0.00
5:56 pm 17:56 Cloudy with Rain 34 1.1 31 -0.6 89 89 SE 15 24 30.16 1021 10 16 0.00 0.00
6:56 pm 18:56 Cloudy with Light Rain 34 1.1 32 undefined 92 92 SE 15 24 30.14 1021 10 16 0.00 0.00
7:56 pm 19:56 Cloudy with Light Rain 34 1.1 33 0.6 97 97 SE 16 26 30.10 1019 10 16 0.00 0.00
8:56 pm 20:56 Cloudy with Light Rain 35 1.7 33 0.6 93 93 SSE 12 19 30.07 1018 10 16 0.00 0.00
9:56 pm 21:56 Cloudy with Light Rain 36 2.2 33 0.6 89 89 SSE 9 15 30.04 1017 10 16 0.00 0.00
10:56 pm 22:56 Mostly Cloudy with Light Rain 40 4.4 36 2.2 86 86 SSW 13 20 30.01 1016 10 16 0.00 0.00
11:56 pm 23:56 Cloudy with Light Rain 42 5.6 38 3.3 85 85 SSW 16 26 30.01 1016 10 16 0.00 0.00

Powered by AerisWeather